SL-8 DEB, 1478

Orbit data source: Space-Track

SL-8 DEB, 1478 is space debris in LEO originally from a launch on Mon, 15 Mar 1965 UTC launched from the Tyuratam Missile And Space Complex (TTMTR). Debris objects in space refer to the collection of defunct objects orbiting the Earth. Examples of debris include non-operational satellites, rocket bodies, and fragments generated from explosions, collisions, or faulty payload assembly.

Loading next visibility...
Identifier
1478, 1965-020BC
Orbit
LEO
Country
Flag of CISCIS
Related business
Manufacturer
Unknown
Mission
Spacecraft
Bus & Motor
Unknown
Mass
Unknown
Launch date (UTC)
1965-03-15 (61 years ago)
Launch vehicle
Unknown
Launch site
Tyuratam Missile And Space Complex (TTMTR)
Object type
Payload
Rocket body
Debris
Shape & HBR
Unknown
Radar Cross Section
Medium (>0.1 m² and <1 m²)

Expand to show TLE details & history
Last TLE update: 7 hours ago

TLE from 7 hours ago
0 SL-8 DEB
1 01478U 65020BC  25260.93590288  .00001076  00000-0  56642-3 0  9992
2 01478  56.0760 160.1043 0596952 149.0762 214.6827 13.54165607887962
Epoch: 2025-09-17T22:27Z
TLE epoch observation values (Epoch: 2025-09-17T22:27:42.008Z)
Latitude
-0.00006°
Longitude
-173.92548°
Altitude
1,431.066 km
Speed
6.965 km/s
True Right ascension
10h 40m 25s
True Declination
0° 00' 00"
Sunlit
Object was in daylight at epoch
Visualization orbit readout
Latitude
Unknown
Longitude
Unknown
Altitude
Unknown
Speed
Unknown
Apparent Right ascension
Unknown
Apparent Declination
Unknown
Sunlit
N/A
Visualization observer readout
Local Sidereal Time
22:38:18
Azimuth
Unknown
Elevation
Unknown
Doppler factor
Unknown
Orbital elements
Apogee altitude
1,500.61 km
Perigee altitude
612.952 km
Semi-major axis
7,434.918 km
Eccentricity
0.0597
Inclination
56.076°
RAAN
160.1043°
Arg. of periapsis
149.0762°
True anomaly
211.0182°
Mean anomaly
214.6827°
Eccentric anomaly
212.82848°
Mean motion
3.38555 °/min
Orbital period
106.33 mins
BSTAR
0.00056642
Loading maneuver chart data...
Computing Atmospheric mass density...
Loading historical data...
Loading historical data...
Loading historical data...
Loading historical data...
Loading historical data...
Loading historical data...
Loading historical data...

Documentation

Showing up to 5 results
|